EN

Hourly Weather Alhimovo

Today, 25 January, Monday

Time Temperature Precipitation Wind Pressure Humidity
00:00 +1°C° 0.1 mm 4 mps 743 mmHg 96%
01:00 +1°C° 0.1 mm 4 mps 743 mmHg 96%
02:00 +1°C° 0.1 mm 4 mps 743 mmHg 96%
03:00 +3°C° 0 mm 4 mps 743 mmHg 95%
04:00 +3°C° 0 mm 4 mps 743 mmHg 95%
05:00 +3°C° 0 mm 4 mps 743 mmHg 94%
06:00 +1°C° 0 mm 4 mps 744 mmHg 95%
07:00 +1°C° 0 mm 4 mps 744 mmHg 95%
08:00 +1°C° 0 mm 4 mps 745 mmHg 95%
09:00 +1°C° 0.3 mm 3 mps 741 mmHg 97%
10:00 +1°C° 0.3 mm 3 mps 742 mmHg 97%
11:00 +1°C° 0.3 mm 4 mps 743 mmHg 97%
12:00 0°C° 0.3 mm 4 mps 744 mmHg 96%
13:00 0°C° 0.3 mm 4 mps 744 mmHg 94%
14:00 0°C° 0.3 mm 4 mps 745 mmHg 93%
15:00 0°C° 0 mm 4 mps 746 mmHg 90%
16:00 -1°C° 0 mm 4 mps 747 mmHg 88%
17:00 -1°C° 0 mm 4 mps 747 mmHg 86%
18:00 0°C° 0 mm 3 mps 748 mmHg 86%
19:00 0°C° 0 mm 3 mps 749 mmHg 87%
20:00 0°C° 0 mm 3 mps 749 mmHg 87%
21:00 0°C° 0 mm 3 mps 749 mmHg 87%
22:00 -1°C° 0 mm 3 mps 750 mmHg 88%
23:00 -1°C° 0 mm 2 mps 750 mmHg 88%

Tomorrow, 26 January, Tuesday

Time Temperature Precipitation Wind Pressure Humidity
00:00 -1°C° 0 mm 2 mps 750 mmHg 89%
01:00 -1°C° 0 mm 2 mps 750 mmHg 90%
02:00 0°C° 0 mm 1 mps 750 mmHg 92%
03:00 0°C° 0 mm 1 mps 750 mmHg 92%
04:00 0°C° 0 mm 1 mps 750 mmHg 92%
05:00 0°C° 0 mm 1 mps 749 mmHg 92%
06:00 -2°C° 0 mm 2 mps 749 mmHg 92%
07:00 -1°C° 0 mm 2 mps 749 mmHg 93%
08:00 -1°C° 0 mm 3 mps 748 mmHg 93%
09:00 -1°C° 0.4 mm 3 mps 748 mmHg 94%
10:00 0°C° 0.4 mm 3 mps 747 mmHg 96%
11:00 0°C° 0.4 mm 3 mps 747 mmHg 97%
12:00 +1°C° 0.5 mm 3 mps 746 mmHg 97%
13:00 +1°C° 0.5 mm 3 mps 746 mmHg 97%
14:00 +1°C° 0.5 mm 3 mps 745 mmHg 97%
15:00 +1°C° 0.7 mm 3 mps 745 mmHg 98%
16:00 +1°C° 0.7 mm 3 mps 745 mmHg 98%
17:00 +1°C° 0.7 mm 3 mps 744 mmHg 98%
18:00 0°C° 0.9 mm 3 mps 744 mmHg 98%
19:00 0°C° 0.9 mm 3 mps 744 mmHg 98%
20:00 0°C° 0.9 mm 3 mps 744 mmHg 98%
21:00 0°C° 0.1 mm 3 mps 744 mmHg 97%
22:00 +1°C° 0.1 mm 2 mps 744 mmHg 96%
23:00 +1°C° 0.1 mm 2 mps 743 mmHg 96%

Day after tomorrow, 27 January, Wednesday

Time Temperature Precipitation Wind Pressure Humidity
00:00 +1°C° 0 mm 2 mps 743 mmHg 96%
01:00 +1°C° 0 mm 2 mps 743 mmHg 96%
02:00 +1°C° 0 mm 2 mps 743 mmHg 97%
03:00 -1°C° 0 mm 2 mps 742 mmHg 97%
04:00 -1°C° 0 mm 2 mps 742 mmHg 97%
05:00 -1°C° 0 mm 2 mps 742 mmHg 98%
06:00 -1°C° 0.3 mm 2 mps 741 mmHg 98%
07:00 -1°C° 0.3 mm 2 mps 741 mmHg 98%
08:00 -1°C° 0.3 mm 3 mps 741 mmHg 98%
09:00 -1°C° 0.6 mm 3 mps 741 mmHg 98%
10:00 -1°C° 0.6 mm 3 mps 741 mmHg 98%
11:00 -1°C° 0.6 mm 3 mps 741 mmHg 98%
12:00 -1°C° 0.5 mm 3 mps 741 mmHg 98%
13:00 -1°C° 0.5 mm 3 mps 741 mmHg 98%
14:00 -1°C° 0.5 mm 2 mps 741 mmHg 98%
15:00 -1°C° 0.6 mm 2 mps 741 mmHg 98%
16:00 -1°C° 0.6 mm 2 mps 742 mmHg 98%
17:00 -1°C° 0.6 mm 2 mps 742 mmHg 98%
18:00 -1°C° 0.4 mm 2 mps 742 mmHg 98%
19:00 -1°C° 0.4 mm 2 mps 742 mmHg 98%
20:00 -1°C° 0.4 mm 2 mps 743 mmHg 98%
21:00 -1°C° 0.2 mm 2 mps 743 mmHg 98%
22:00 -1°C° 0.2 mm 2 mps 743 mmHg 98%
23:00 -1°C° 0.2 mm 2 mps 744 mmHg 98%

28 January, Thursday

Time Temperature Precipitation Wind Pressure Humidity
00:00 -1°C° 0.4 mm 2 mps 744 mmHg 98%
01:00 -1°C° 0.4 mm 2 mps 744 mmHg 98%
02:00 -1°C° 0.4 mm 2 mps 745 mmHg 98%
03:00 -1°C° 0.2 mm 2 mps 745 mmHg 98%
04:00 -2°C° 0.2 mm 2 mps 745 mmHg 98%
05:00 -2°C° 0.2 mm 2 mps 746 mmHg 98%
06:00 -2°C° 0.1 mm 2 mps 746 mmHg 97%
07:00 -2°C° 0.1 mm 2 mps 746 mmHg 97%
08:00 -1°C° 0.1 mm 1 mps 747 mmHg 97%
09:00 -1°C° 0 mm 1 mps 747 mmHg 96%
10:00 0°C° 0 mm 1 mps 748 mmHg 95%
11:00 0°C° 0 mm 1 mps 748 mmHg 94%
12:00 0°C° 0.1 mm 1 mps 748 mmHg 95%
13:00 0°C° 0.1 mm 1 mps 748 mmHg 95%
14:00 +1°C° 0.1 mm 1 mps 749 mmHg 95%
15:00 0°C° 0.1 mm 1 mps 749 mmHg 96%
16:00 0°C° 0.1 mm 1 mps 749 mmHg 97%
17:00 -1°C° 0.1 mm 1 mps 749 mmHg 98%
18:00 -1°C° 0 mm 1 mps 750 mmHg 97%
19:00 -2°C° 0 mm 0 mps 750 mmHg 97%
20:00 -3°C° 0 mm 0 mps 750 mmHg 97%

29 January, Friday

Time Temperature Precipitation Wind Pressure Humidity

30 January, Saturday

Time Temperature Precipitation Wind Pressure Humidity
Show more